Time,TemperatureF,DewpointF,PressureIn,WindDirection,WindDirectionDegrees,WindSpeedMPH,WindSpeedGustMPH,Humidity,HourlyPrecipIn,Conditions,Clouds,dailyrainin,SolarRadiationWatts/m^2,SoftwareType,DateUTC
2013-06-28 00:00:00,71.9,62.8,29.93,SE,131,0.0,0.0,73,0.00,,,0.00,0,Wunderground v.1.15,2013-06-28 05:00:00,
2013-06-28 00:10:00,71.5,62.4,29.93,SE,131,0.0,0.0,73,0.00,,,0.00,0,Wunderground v.1.15,2013-06-28 05:10:00,
2013-06-28 00:15:00,71.4,62.3,29.93,SE,131,0.0,0.0,73,0.00,,,0.00,0,Wunderground v.1.15,2013-06-28 05:15:00,
2013-06-28 00:20:00,71.3,62.6,29.93,SE,131,0.0,0.0,74,0.00,,,0.00,0,Wunderground v.1.15,2013-06-28 05:20:00,
2013-06-28 00:30:00,70.8,62.5,29.94,SE,131,0.0,0.0,75,0.00,,,0.00,0,Wunderground v.1.15,2013-06-28 05:30:00,
2013-06-28 00:35:00,70.7,62.8,29.93,SE,131,0.0,0.0,76,0.00,,,0.00,0,Wunderground v.1.15,2013-06-28 05:35:00,
2013-06-28 00:40:00,70.6,62.7,29.93,SE,131,0.0,0.0,76,0.00,,,0.00,0,Wunderground v.1.15,2013-06-28 05:40:00,
2013-06-28 00:45:00,70.3,62.7,29.93,SE,131,0.0,0.0,77,0.00,,,0.00,0,Wunderground v.1.15,2013-06-28 05:45:00,
2013-06-28 00:50:00,70.2,62.3,29.93,SE,131,0.0,0.0,76,0.00,,,0.00,0,Wunderground v.1.15,2013-06-28 05:50:00,
2013-06-28 00:55:00,70.1,62.6,29.93,SE,131,0.0,0.0,77,0.00,,,0.00,0,Wunderground v.1.15,2013-06-28 05:55:00,
2013-06-28 01:00:00,70.1,62.6,29.93,SE,131,0.0,0.0,77,0.00,,,0.00,0,Wunderground v.1.15,2013-06-28 06:00:00,
2013-06-28 01:05:00,70.0,62.8,29.94,SE,131,0.0,0.0,78,0.00,,,0.00,0,Wunderground v.1.15,2013-06-28 06:05:00,
2013-06-28 01:15:00,69.9,62.7,29.94,SE,131,0.0,0.0,78,0.00,,,0.00,0,Wunderground v.1.15,2013-06-28 06:15:00,
2013-06-28 01:20:00,69.8,63.0,29.93,SE,131,0.0,0.0,79,0.00,,,0.00,0,Wunderground v.1.15,2013-06-28 06:20:00,
2013-06-28 01:25:00,69.8,62.6,29.93,SE,131,0.0,0.0,78,0.00,,,0.00,0,Wunderground v.1.15,2013-06-28 06:25:00,
2013-06-28 01:35:00,69.8,63.0,29.93,SE,131,0.0,0.0,79,0.00,,,0.00,0,Wunderground v.1.15,2013-06-28 06:35:00,
2013-06-28 01:45:00,69.8,63.3,29.94,SE,131,0.0,0.0,80,0.00,,,0.00,0,Wunderground v.1.15,2013-06-28 06:45:00,
2013-06-28 01:50:00,69.8,63.3,29.93,SE,131,0.0,0.0,80,0.00,,,0.00,0,Wunderground v.1.15,2013-06-28 06:50:00,
2013-06-28 01:55:00,69.9,63.8,29.93,SE,131,0.0,0.0,81,0.00,,,0.00,0,Wunderground v.1.15,2013-06-28 06:55:00,
2013-06-28 02:05:00,71.0,64.9,29.93,SW,227,0.0,0.0,81,0.00,,,0.00,0,Wunderground v.1.15,2013-06-28 07:05:00,
2013-06-28 02:10:00,71.9,65.4,29.93,SW,228,0.0,0.0,80,0.00,,,0.00,0,Wunderground v.1.15,2013-06-28 07:10:00,
2013-06-28 02:15:00,72.6,65.7,29.93,SW,228,0.0,0.0,79,0.00,,,0.00,0,Wunderground v.1.15,2013-06-28 07:15:00,
2013-06-28 02:20:00,73.2,65.9,29.92,SW,228,0.0,0.0,78,0.00,,,0.00,0,Wunderground v.1.15,2013-06-28 07:20:00,
2013-06-28 02:25:00,73.6,65.9,29.93,SW,228,0.0,0.0,77,0.00,,,0.00,0,Wunderground v.1.15,2013-06-28 07:25:00,
2013-06-28 02:30:00,73.7,66.0,29.93,SW,228,0.0,0.0,77,0.00,,,0.00,0,Wunderground v.1.15,2013-06-28 07:30:00,
2013-06-28 02:35:00,73.7,65.7,29.92,SW,228,0.0,0.0,76,0.00,,,0.00,0,Wunderground v.1.15,2013-06-28 07:35:00,
2013-06-28 02:40:00,73.6,65.6,29.92,SW,228,0.0,0.0,76,0.00,,,0.00,0,Wunderground v.1.15,2013-06-28 07:40:00,
2013-06-28 02:50:00,73.5,66.6,29.92,SW,228,0.0,0.0,79,0.00,,,0.00,0,Wunderground v.1.15,2013-06-28 07:50:00,
2013-06-28 02:55:00,73.9,67.3,29.92,WSW,257,0.0,0.0,80,0.00,,,0.00,0,Wunderground v.1.15,2013-06-28 07:55:00,
2013-06-28 03:00:00,74.2,67.6,29.92,WSW,257,0.0,0.0,80,0.00,,,0.00,0,Wunderground v.1.15,2013-06-28 08:00:00,
2013-06-28 03:05:00,74.5,67.9,29.92,WSW,257,0.0,0.0,80,0.00,,,0.00,0,Wunderground v.1.15,2013-06-28 08:05:00,
2013-06-28 03:10:00,74.8,68.2,29.92,WSW,257,0.0,0.0,80,0.00,,,0.00,0,Wunderground v.1.15,2013-06-28 08:10:00,
2013-06-28 03:20:00,74.9,67.9,29.92,WSW,257,0.0,0.0,79,0.00,,,0.00,0,Wunderground v.1.15,2013-06-28 08:20:00,
2013-06-28 03:25:00,75.0,68.4,29.91,WSW,257,0.0,0.0,80,0.00,,,0.00,0,Wunderground v.1.15,2013-06-28 08:25:00,
2013-06-28 03:35:00,75.3,68.7,29.90,WNW,283,0.0,0.0,80,0.00,,,0.00,0,Wunderground v.1.15,2013-06-28 08:35:00,
2013-06-28 03:40:00,75.7,69.1,29.90,West,273,0.0,1.0,80,0.00,,,0.00,0,Wunderground v.1.15,2013-06-28 08:40:00,
2013-06-28 03:45:00,75.8,68.8,29.90,West,259,1.0,1.0,79,0.00,,,0.00,0,Wunderground v.1.15,2013-06-28 08:45:00,
2013-06-28 03:50:00,75.8,68.8,29.89,West,277,1.0,1.0,79,0.00,,,0.00,0,Wunderground v.1.15,2013-06-28 08:50:00,
2013-06-28 03:55:00,75.7,69.1,29.89,ESE,117,0.0,1.0,80,0.00,,,0.00,0,Wunderground v.1.15,2013-06-28 08:55:00,
2013-06-28 04:00:00,75.5,68.9,29.89,SSW,213,0.0,0.0,80,0.00,,,0.00,0,Wunderground v.1.15,2013-06-28 09:00:00,
2013-06-28 04:05:00,75.5,68.9,29.90,SW,223,0.0,0.0,80,0.00,,,0.00,0,Wunderground v.1.15,2013-06-28 09:05:00,
2013-06-28 04:10:00,75.4,68.8,29.91,SW,223,0.0,0.0,80,0.00,,,0.00,0,Wunderground v.1.15,2013-06-28 09:10:00,
2013-06-28 04:15:00,75.2,68.6,29.90,SW,223,0.0,0.0,80,0.00,,,0.00,0,Wunderground v.1.15,2013-06-28 09:15:00,
2013-06-28 04:25:00,74.9,69.0,29.89,SE,134,0.0,0.0,82,0.00,,,0.00,0,Wunderground v.1.15,2013-06-28 09:25:00,
2013-06-28 04:30:00,74.9,69.0,29.89,SE,134,0.0,0.0,82,0.00,,,0.00,0,Wunderground v.1.15,2013-06-28 09:30:00,
2013-06-28 04:35:00,74.8,68.9,29.89,SE,136,0.0,0.0,82,0.00,,,0.00,0,Wunderground v.1.15,2013-06-28 09:35:00,
2013-06-28 04:40:00,74.7,68.8,29.89,SE,136,0.0,0.0,82,0.00,,,0.00,0,Wunderground v.1.15,2013-06-28 09:40:00,
2013-06-28 04:45:00,74.6,68.7,29.90,SE,136,0.0,0.0,82,0.00,,,0.00,0,Wunderground v.1.15,2013-06-28 09:45:00,
2013-06-28 04:50:00,74.5,68.6,29.90,SE,136,0.0,0.0,82,0.00,,,0.00,0,Wunderground v.1.15,2013-06-28 09:50:00,
2013-06-28 05:00:00,74.2,68.3,29.91,SE,136,0.0,0.0,82,0.00,,,0.00,0,Wunderground v.1.15,2013-06-28 10:00:00,
2013-06-28 05:10:00,73.6,68.1,29.92,SE,136,0.0,0.0,83,0.00,,,0.00,0,Wunderground v.1.15,2013-06-28 10:10:00,
2013-06-28 05:15:00,73.3,68.2,29.92,SE,136,0.0,0.0,84,0.00,,,0.00,0,Wunderground v.1.15,2013-06-28 10:15:00,
2013-06-28 05:20:00,73.0,67.9,29.92,SE,136,0.0,0.0,84,0.00,,,0.00,0,Wunderground v.1.15,2013-06-28 10:20:00,
2013-06-28 05:25:00,72.7,67.6,29.92,SE,136,0.0,0.0,84,0.00,,,0.00,0,Wunderground v.1.15,2013-06-28 10:25:00,
2013-06-28 05:30:00,72.4,67.6,29.92,SE,136,0.0,0.0,85,0.00,,,0.00,0,Wunderground v.1.15,2013-06-28 10:30:00,
2013-06-28 05:35:00,71.9,67.1,29.91,SE,136,0.0,0.0,85,0.00,,,0.00,0,Wunderground v.1.15,2013-06-28 10:35:00,
2013-06-28 05:40:00,71.6,67.2,29.91,SE,136,0.0,0.0,86,0.00,,,0.00,0,Wunderground v.1.15,2013-06-28 10:40:00,
2013-06-28 05:50:00,71.4,68.0,29.91,West,275,0.0,0.0,89,0.00,,,0.00,0,Wunderground v.1.15,2013-06-28 10:50:00,
2013-06-28 05:55:00,71.7,68.0,29.91,West,275,0.0,0.0,88,0.00,,,0.00,0,Wunderground v.1.15,2013-06-28 10:55:00,
2013-06-28 06:00:00,72.0,68.2,29.91,SSW,212,0.0,1.0,88,0.00,,,0.00,0,Wunderground v.1.15,2013-06-28 11:00:00,
2013-06-28 06:10:00,72.3,68.2,29.91,WSW,246,0.0,0.0,87,0.00,,,0.00,0,Wunderground v.1.15,2013-06-28 11:10:00,
2013-06-28 06:15:00,72.2,68.1,29.92,WSW,246,0.0,0.0,87,0.00,,,0.00,0,Wunderground v.1.15,2013-06-28 11:15:00,
2013-06-28 06:20:00,72.2,68.1,29.92,WSW,246,0.0,0.0,87,0.00,,,0.00,0,Wunderground v.1.15,2013-06-28 11:20:00,
2013-06-28 06:25:00,72.2,68.1,29.92,WSW,246,0.0,0.0,87,0.00,,,0.00,0,Wunderground v.1.15,2013-06-28 11:25:00,
2013-06-28 06:35:00,72.2,68.1,29.92,WSW,246,0.0,0.0,87,0.00,,,0.00,0,Wunderground v.1.15,2013-06-28 11:35:00,
2013-06-28 06:40:00,72.2,68.1,29.93,WSW,246,0.0,0.0,87,0.00,,,0.00,5,Wunderground v.1.15,2013-06-28 11:40:00,
2013-06-28 06:50:00,72.0,68.2,29.93,WSW,246,0.0,0.0,88,0.00,,,0.00,11,Wunderground v.1.15,2013-06-28 11:50:00,
2013-06-28 06:55:00,72.1,68.3,29.93,WSW,246,0.0,0.0,88,0.00,,,0.00,12,Wunderground v.1.15,2013-06-28 11:55:00,
2013-06-28 07:00:00,72.1,68.3,29.93,WSW,246,0.0,0.0,88,0.00,,,0.00,18,Wunderground v.1.15,2013-06-28 12:00:00,
2013-06-28 07:05:00,72.3,68.5,29.93,WSW,246,0.0,0.0,88,0.00,,,0.00,28,Wunderground v.1.15,2013-06-28 12:05:00,
2013-06-28 07:10:00,72.5,68.7,29.93,WSW,246,0.0,0.0,88,0.00,,,0.00,44,Wunderground v.1.15,2013-06-28 12:10:00,
2013-06-28 07:15:00,72.8,69.0,29.94,WSW,246,0.0,0.0,88,0.00,,,0.00,54,Wunderground v.1.15,2013-06-28 12:15:00,
2013-06-28 07:25:00,73.7,69.6,29.94,WSW,246,0.0,0.0,87,0.00,,,0.00,67,Wunderground v.1.15,2013-06-28 12:25:00,
2013-06-28 07:30:00,74.0,69.5,29.94,WSW,246,0.0,1.0,86,0.00,,,0.00,93,Wunderground v.1.15,2013-06-28 12:30:00,
2013-06-28 07:35:00,74.5,70.0,29.94,WSW,246,0.0,1.0,86,0.00,,,0.00,111,Wunderground v.1.15,2013-06-28 12:35:00,
2013-06-28 07:40:00,74.9,70.1,29.94,WSW,246,0.0,0.0,85,0.00,,,0.00,105,Wunderground v.1.15,2013-06-28 12:40:00,
2013-06-28 07:45:00,75.4,70.2,29.94,SW,225,0.0,0.0,84,0.00,,,0.00,134,Wunderground v.1.15,2013-06-28 12:45:00,
2013-06-28 07:50:00,76.0,70.5,29.94,ESE,117,1.0,1.0,83,0.00,,,0.00,144,Wunderground v.1.15,2013-06-28 12:50:00,
2013-06-28 07:55:00,76.4,70.9,29.94,South,189,1.0,3.0,83,0.00,,,0.00,176,Wunderground v.1.15,2013-06-28 12:55:00,
2013-06-28 08:00:00,76.9,71.0,29.95,WSW,250,1.0,5.0,82,0.00,,,0.00,186,Wunderground v.1.15,2013-06-28 13:00:00,
2013-06-28 08:10:00,77.6,71.3,29.94,West,260,1.0,1.0,81,0.00,,,0.00,241,Wunderground v.1.15,2013-06-28 13:10:00,
2013-06-28 08:15:00,77.9,71.2,29.94,South,180,2.0,2.0,80,0.00,,,0.00,255,Wunderground v.1.15,2013-06-28 13:15:00,
2013-06-28 08:20:00,78.3,71.2,29.95,SW,225,2.0,2.0,79,0.00,,,0.00,274,Wunderground v.1.15,2013-06-28 13:20:00,
2013-06-28 08:25:00,78.5,71.4,29.95,WSW,240,2.0,2.0,79,0.00,,,0.00,287,Wunderground v.1.15,2013-06-28 13:25:00,
2013-06-28 08:30:00,78.7,71.6,29.95,West,265,2.0,2.0,79,0.00,,,0.00,306,Wunderground v.1.15,2013-06-28 13:30:00,
2013-06-28 08:35:00,79.1,71.6,29.95,West,259,2.0,2.0,78,0.00,,,0.00,323,Wunderground v.1.15,2013-06-28 13:35:00,
2013-06-28 08:45:00,79.7,71.8,29.95,WSW,247,1.0,1.0,77,0.00,,,0.00,343,Wunderground v.1.15,2013-06-28 13:45:00,
2013-06-28 08:50:00,80.0,71.8,29.95,West,262,1.0,3.0,76,0.00,,,0.00,330,Wunderground v.1.15,2013-06-28 13:50:00,
2013-06-28 08:55:00,80.2,71.9,29.95,WSW,253,1.0,3.0,76,0.00,,,0.00,341,Wunderground v.1.15,2013-06-28 13:55:00,
2013-06-28 09:00:00,80.4,72.1,29.95,SSW,207,1.0,2.0,76,0.00,,,0.00,385,Wunderground v.1.15,2013-06-28 14:00:00,
2013-06-28 09:05:00,80.8,72.1,29.95,West,274,1.0,3.0,75,0.00,,,0.00,418,Wunderground v.1.15,2013-06-28 14:05:00,
2013-06-28 09:15:00,81.6,72.1,29.93,SW,225,2.0,3.0,73,0.00,,,0.00,432,Wunderground v.1.15,2013-06-28 14:15:00,
2013-06-28 09:20:00,81.8,71.9,29.94,WSW,246,2.0,4.0,72,0.00,,,0.00,468,Wunderground v.1.15,2013-06-28 14:20:00,
2013-06-28 09:30:00,82.5,71.7,29.94,WSW,248,3.0,3.0,70,0.00,,,0.00,501,Wunderground v.1.15,2013-06-28 14:30:00,
2013-06-28 09:35:00,83.1,71.9,29.94,SW,235,2.0,3.0,69,0.00,,,0.00,524,Wunderground v.1.15,2013-06-28 14:35:00,
2013-06-28 09:40:00,83.4,71.7,29.94,WSW,238,2.0,3.0,68,0.00,,,0.00,550,Wunderground v.1.15,2013-06-28 14:40:00,
2013-06-28 09:50:00,84.1,71.1,29.94,WSW,254,2.0,3.0,65,0.00,,,0.00,578,Wunderground v.1.15,2013-06-28 14:50:00,
2013-06-28 09:55:00,84.6,71.1,29.94,WSW,247,2.0,3.0,64,0.00,,,0.00,582,Wunderground v.1.15,2013-06-28 14:55:00,
2013-06-28 10:00:00,84.9,70.4,29.93,WSW,238,2.0,2.0,62,0.00,,,0.00,594,Wunderground v.1.15,2013-06-28 15:00:00,
2013-06-28 10:05:00,85.4,70.9,29.94,WSW,255,2.0,2.0,62,0.00,,,0.00,619,Wunderground v.1.15,2013-06-28 15:05:00,
2013-06-28 10:10:00,85.8,70.8,29.94,WSW,252,1.0,1.0,61,0.00,,,0.00,645,Wunderground v.1.15,2013-06-28 15:10:00,
2013-06-28 10:15:00,86.3,70.3,29.94,WSW,244,1.0,4.0,59,0.00,,,0.00,652,Wunderground v.1.15,2013-06-28 15:15:00,
2013-06-28 10:25:00,86.8,69.7,29.94,SW,219,1.0,2.0,57,0.00,,,0.00,664,Wunderground v.1.15,2013-06-28 15:25:00,
2013-06-28 10:30:00,87.4,70.8,29.94,SW,221,1.0,1.0,58,0.00,,,0.00,684,Wunderground v.1.15,2013-06-28 15:30:00,
2013-06-28 10:40:00,88.4,70.7,29.94,SW,234,1.0,1.0,56,0.00,,,0.00,726,Wunderground v.1.15,2013-06-28 15:40:00,
2013-06-28 10:45:00,89.1,70.8,29.94,WSW,243,1.0,2.0,55,0.00,,,0.00,737,Wunderground v.1.15,2013-06-28 15:45:00,
2013-06-28 10:50:00,89.2,70.4,29.94,WSW,253,1.0,2.0,54,0.00,,,0.00,745,Wunderground v.1.15,2013-06-28 15:50:00,
2013-06-28 10:55:00,89.7,68.6,29.94,SW,223,2.0,2.0,50,0.00,,,0.00,759,Wunderground v.1.15,2013-06-28 15:55:00,
2013-06-28 11:00:00,90.2,69.6,29.93,WSW,238,1.0,1.0,51,0.00,,,0.00,766,Wunderground v.1.15,2013-06-28 16:00:00,
2013-06-28 11:05:00,90.6,69.4,29.93,SW,229,1.0,2.0,50,0.00,,,0.00,784,Wunderground v.1.15,2013-06-28 16:05:00,
2013-06-28 11:10:00,90.9,69.1,29.93,West,268,2.0,2.0,49,0.00,,,0.00,784,Wunderground v.1.15,2013-06-28 16:10:00,
2013-06-28 11:15:00,91.3,68.9,29.93,NNW,346,2.0,2.0,48,0.00,,,0.00,770,Wunderground v.1.15,2013-06-28 16:15:00,
2013-06-28 11:20:00,91.5,68.4,29.93,SW,225,1.0,1.0,47,0.00,,,0.00,805,Wunderground v.1.15,2013-06-28 16:20:00,
2013-06-28 11:25:00,92.1,69.0,29.93,West,266,1.0,1.0,47,0.00,,,0.00,823,Wunderground v.1.15,2013-06-28 16:25:00,
2013-06-28 11:30:00,92.4,68.6,29.93,SW,224,1.0,2.0,46,0.00,,,0.00,826,Wunderground v.1.15,2013-06-28 16:30:00,
2013-06-28 11:35:00,92.7,69.5,29.93,WSW,240,1.0,2.0,47,0.00,,,0.00,833,Wunderground v.1.15,2013-06-28 16:35:00,
2013-06-28 11:40:00,93.1,68.6,29.92,SW,236,1.0,1.0,45,0.00,,,0.00,846,Wunderground v.1.15,2013-06-28 16:40:00,
2013-06-28 11:50:00,94.2,70.2,29.92,SW,222,1.0,1.0,46,0.00,,,0.00,867,Wunderground v.1.15,2013-06-28 16:50:00,
2013-06-28 11:55:00,94.6,68.6,29.92,SW,214,1.0,2.0,43,0.00,,,0.00,877,Wunderground v.1.15,2013-06-28 16:55:00,
2013-06-28 12:00:00,94.6,69.3,29.91,WSW,238,1.0,1.0,44,0.00,,,0.00,875,Wunderground v.1.15,2013-06-28 17:00:00,
2013-06-28 12:10:00,95.3,68.6,29.91,West,275,1.0,4.0,42,0.00,,,0.00,884,Wunderground v.1.15,2013-06-28 17:10:00,
2013-06-28 12:15:00,95.3,68.6,29.91,WSW,238,1.0,4.0,42,0.00,,,0.00,889,Wunderground v.1.15,2013-06-28 17:15:00,
2013-06-28 12:20:00,95.6,70.2,29.91,ESE,117,1.0,1.0,44,0.00,,,0.00,896,Wunderground v.1.15,2013-06-28 17:20:00,
2013-06-28 12:30:00,96.5,68.9,29.90,WSW,251,1.0,2.0,41,0.00,,,0.00,916,Wunderground v.1.15,2013-06-28 17:30:00,
2013-06-28 12:35:00,96.8,69.2,29.90,WSW,240,1.0,4.0,41,0.00,,,0.00,926,Wunderground v.1.15,2013-06-28 17:35:00,
2013-06-28 12:40:00,97.0,67.9,29.90,ESE,105,1.0,1.0,39,0.00,,,0.00,933,Wunderground v.1.15,2013-06-28 17:40:00,
2013-06-28 12:45:00,97.7,70.7,29.90,SW,225,1.0,1.0,42,0.00,,,0.00,935,Wunderground v.1.15,2013-06-28 17:45:00,
2013-06-28 12:50:00,98.4,67.6,29.90,WSW,249,0.0,0.0,37,0.00,,,0.00,877,Wunderground v.1.15,2013-06-28 17:50:00,
2013-06-28 12:55:00,98.7,63.7,29.89,SW,227,1.0,3.0,32,0.00,,,0.00,958,Wunderground v.1.15,2013-06-28 17:55:00,
2013-06-28 13:00:00,98.5,63.6,29.89,East,88,1.0,2.0,32,0.00,,,0.00,953,Wunderground v.1.15,2013-06-28 18:00:00,
2013-06-28 13:10:00,98.6,65.4,29.89,WSW,244,1.0,1.0,34,0.00,,,0.00,944,Wunderground v.1.15,2013-06-28 18:10:00,
2013-06-28 13:15:00,99.1,65.0,29.89,SSW,213,1.0,1.0,33,0.00,,,0.00,949,Wunderground v.1.15,2013-06-28 18:15:00,
2013-06-28 13:20:00,99.4,64.3,29.89,SW,228,2.0,3.0,32,0.00,,,0.00,956,Wunderground v.1.15,2013-06-28 18:20:00,
2013-06-28 13:25:00,99.1,66.6,29.88,SW,220,1.0,3.0,35,0.00,,,0.00,954,Wunderground v.1.15,2013-06-28 18:25:00,
2013-06-28 13:30:00,99.4,64.3,29.88,East,94,2.0,2.0,32,0.00,,,0.00,954,Wunderground v.1.15,2013-06-28 18:30:00,
2013-06-28 13:35:00,99.9,64.8,29.88,ENE,78,2.0,3.0,32,0.00,,,0.00,954,Wunderground v.1.15,2013-06-28 18:35:00,
2013-06-28 13:40:00,99.8,62.8,29.88,East,90,2.0,2.0,30,0.00,,,0.00,953,Wunderground v.1.15,2013-06-28 18:40:00,
2013-06-28 13:45:00,99.9,63.9,29.88,ENE,78,2.0,2.0,31,0.00,,,0.00,949,Wunderground v.1.15,2013-06-28 18:45:00,
2013-06-28 13:50:00,100.3,66.0,29.88,South,180,1.0,1.0,33,0.00,,,0.00,956,Wunderground v.1.15,2013-06-28 18:50:00,
2013-06-28 13:55:00,100.8,64.6,29.87,SW,219,1.0,1.0,31,0.00,,,0.00,953,Wunderground v.1.15,2013-06-28 18:55:00,
2013-06-28 14:00:00,101.2,65.0,29.87,East,86,1.0,1.0,31,0.00,,,0.00,944,Wunderground v.1.15,2013-06-28 19:00:00,
2013-06-28 14:05:00,101.4,65.1,29.86,ENE,77,1.0,2.0,31,0.00,,,0.00,905,Wunderground v.1.15,2013-06-28 19:05:00,
2013-06-28 14:10:00,101.8,64.6,29.86,East,84,1.0,1.0,30,0.00,,,0.00,928,Wunderground v.1.15,2013-06-28 19:10:00,
2013-06-28 14:15:00,101.5,66.1,29.86,ENE,74,2.0,2.0,32,0.00,,,0.00,937,Wunderground v.1.15,2013-06-28 19:15:00,
2013-06-28 14:25:00,101.2,64.0,29.85,East,82,2.0,3.0,30,0.00,,,0.00,916,Wunderground v.1.15,2013-06-28 19:25:00,
2013-06-28 14:30:00,101.3,64.1,29.85,East,84,1.0,1.0,30,0.00,,,0.00,912,Wunderground v.1.15,2013-06-28 19:30:00,
2013-06-28 14:40:00,101.8,63.6,29.84,ESE,104,2.0,2.0,29,0.00,,,0.00,907,Wunderground v.1.15,2013-06-28 19:40:00,
2013-06-28 14:45:00,101.9,65.6,29.84,East,89,1.0,2.0,31,0.00,,,0.00,884,Wunderground v.1.15,2013-06-28 19:45:00,
2013-06-28 14:50:00,102.0,63.8,29.84,ESE,105,1.0,1.0,29,0.00,,,0.00,879,Wunderground v.1.15,2013-06-28 19:50:00,
2013-06-28 14:55:00,102.0,63.8,29.84,East,82,2.0,2.0,29,0.00,,,0.00,891,Wunderground v.1.15,2013-06-28 19:55:00,
2013-06-28 15:00:00,102.1,62.8,29.84,ESE,102,2.0,2.0,28,0.00,,,0.00,870,Wunderground v.1.15,2013-06-28 20:00:00,
2013-06-28 15:05:00,102.3,62.0,29.83,SSW,192,2.0,2.0,27,0.00,,,0.00,865,Wunderground v.1.15,2013-06-28 20:05:00,
2013-06-28 15:15:00,102.3,62.0,29.83,East,84,2.0,2.0,27,0.00,,,0.00,831,Wunderground v.1.15,2013-06-28 20:15:00,
2013-06-28 15:20:00,102.2,60.8,29.83,East,80,3.0,3.0,26,0.00,,,0.00,865,Wunderground v.1.15,2013-06-28 20:20:00,
2013-06-28 15:25:00,102.2,61.9,29.82,ENE,69,2.0,3.0,27,0.00,,,0.00,833,Wunderground v.1.15,2013-06-28 20:25:00,
2013-06-28 15:35:00,102.5,62.1,29.82,East,82,1.0,2.0,27,0.00,,,0.00,816,Wunderground v.1.15,2013-06-28 20:35:00,
2013-06-28 15:40:00,102.6,62.2,29.82,East,87,1.0,1.0,27,0.00,,,0.00,810,Wunderground v.1.15,2013-06-28 20:40:00,
2013-06-28 15:50:00,103.2,61.7,29.82,SW,214,1.0,1.0,26,0.00,,,0.00,779,Wunderground v.1.15,2013-06-28 20:50:00,
2013-06-28 15:55:00,103.7,63.2,29.81,ENE,73,1.0,1.0,27,0.00,,,0.00,751,Wunderground v.1.15,2013-06-28 20:55:00,
2013-06-28 16:00:00,104.1,62.4,29.81,WSW,242,1.0,1.0,26,0.00,,,0.00,731,Wunderground v.1.15,2013-06-28 21:00:00,
2013-06-28 16:05:00,104.5,62.8,29.81,ENE,61,1.0,3.0,26,0.00,,,0.00,698,Wunderground v.1.15,2013-06-28 21:05:00,
2013-06-28 16:10:00,104.2,62.5,29.81,East,84,1.0,2.0,26,0.00,,,0.00,663,Wunderground v.1.15,2013-06-28 21:10:00,
2013-06-28 16:20:00,104.1,60.2,29.80,ENE,68,1.0,1.0,24,0.00,,,0.00,656,Wunderground v.1.15,2013-06-28 21:20:00,
2013-06-28 16:25:00,104.6,60.6,29.80,SSE,165,0.0,1.0,24,0.00,,,0.00,715,Wunderground v.1.15,2013-06-28 21:25:00,
2013-06-28 16:30:00,105.3,62.3,29.80,SSW,213,0.0,0.0,25,0.00,,,0.00,670,Wunderground v.1.15,2013-06-28 21:30:00,
2013-06-28 16:35:00,105.6,63.7,29.79,ENE,59,0.0,1.0,26,0.00,,,0.00,643,Wunderground v.1.15,2013-06-28 21:35:00,
2013-06-28 16:40:00,105.1,62.2,29.79,ENE,71,1.0,3.0,25,0.00,,,0.00,548,Wunderground v.1.15,2013-06-28 21:40:00,
2013-06-28 16:45:00,104.5,61.6,29.79,East,79,1.0,3.0,25,0.00,,,0.00,557,Wunderground v.1.15,2013-06-28 21:45:00,
2013-06-28 16:50:00,103.6,60.9,29.79,East,95,2.0,2.0,25,0.00,,,0.00,410,Wunderground v.1.15,2013-06-28 21:50:00,
2013-06-28 16:55:00,103.0,61.5,29.79,ENE,72,2.0,2.0,26,0.00,,,0.00,462,Wunderground v.1.15,2013-06-28 21:55:00,
2013-06-28 17:00:00,102.4,59.9,29.79,East,79,2.0,2.0,25,0.00,,,0.00,487,Wunderground v.1.15,2013-06-28 22:00:00,
2013-06-28 17:05:00,102.5,61.1,29.79,SSW,198,1.0,2.0,26,0.00,,,0.00,478,Wunderground v.1.15,2013-06-28 22:05:00,
2013-06-28 17:10:00,102.7,61.2,29.78,NE,39,1.0,1.0,26,0.00,,,0.00,499,Wunderground v.1.15,2013-06-28 22:10:00,
2013-06-28 17:15:00,102.8,61.3,29.78,SE,126,1.0,3.0,26,0.00,,,0.00,466,Wunderground v.1.15,2013-06-28 22:15:00,
2013-06-28 17:20:00,102.8,60.2,29.78,ENE,66,1.0,1.0,25,0.00,,,0.00,446,Wunderground v.1.15,2013-06-28 22:20:00,
2013-06-28 17:25:00,102.7,61.2,29.78,East,82,1.0,2.0,26,0.00,,,0.00,408,Wunderground v.1.15,2013-06-28 22:25:00,
2013-06-28 17:30:00,102.3,62.0,29.78,ENE,75,1.0,1.0,27,0.00,,,0.00,390,Wunderground v.1.15,2013-06-28 22:30:00,
2013-06-28 17:35:00,102.3,62.0,29.78,ENE,71,1.0,2.0,27,0.00,,,0.00,397,Wunderground v.1.15,2013-06-28 22:35:00,
2013-06-28 17:40:00,102.3,62.0,29.78,East,87,1.0,1.0,27,0.00,,,0.00,390,Wunderground v.1.15,2013-06-28 22:40:00,
2013-06-28 17:50:00,102.5,62.1,29.77,NE,34,1.0,1.0,27,0.00,,,0.00,381,Wunderground v.1.15,2013-06-28 22:50:00,
2013-06-28 18:00:00,102.6,61.2,29.77,East,90,0.0,2.0,26,0.00,,,0.00,357,Wunderground v.1.15,2013-06-28 23:00:00,
2013-06-28 18:10:00,102.4,63.1,29.77,East,96,1.0,1.0,28,0.00,,,0.00,343,Wunderground v.1.15,2013-06-28 23:10:00,
2013-06-28 18:15:00,102.4,62.1,29.77,East,82,1.0,1.0,27,0.00,,,0.00,269,Wunderground v.1.15,2013-06-28 23:15:00,
2013-06-28 18:20:00,102.4,59.9,29.77,WSW,246,1.0,2.0,25,0.00,,,0.00,329,Wunderground v.1.15,2013-06-28 23:20:00,
2013-06-28 18:30:00,102.5,61.1,29.77,ESE,104,1.0,1.0,26,0.00,,,0.00,297,Wunderground v.1.15,2013-06-28 23:30:00,
2013-06-28 18:35:00,102.3,63.0,29.77,East,84,1.0,1.0,28,0.00,,,0.00,91,Wunderground v.1.15,2013-06-28 23:35:00,
2013-06-28 18:40:00,101.9,61.6,29.77,East,79,1.0,1.0,27,0.00,,,0.00,83,Wunderground v.1.15,2013-06-28 23:40:00,
2013-06-28 18:50:00,101.0,61.9,29.76,East,83,1.0,1.0,28,0.00,,,0.00,62,Wunderground v.1.15,2013-06-28 23:50:00,
2013-06-28 18:55:00,100.7,63.6,29.76,East,83,0.0,1.0,30,0.00,,,0.00,53,Wunderground v.1.15,2013-06-28 23:55:00,
2013-06-28 19:00:00,100.1,62.1,29.76,East,86,0.0,1.0,29,0.00,,,0.00,44,Wunderground v.1.15,2013-06-29 00:00:00,
2013-06-28 19:10:00,98.8,62.9,29.76,East,93,0.0,0.0,31,0.00,,,0.00,58,Wunderground v.1.15,2013-06-29 00:10:00,
2013-06-28 19:15:00,98.4,66.0,29.76,East,93,0.0,0.0,35,0.00,,,0.00,53,Wunderground v.1.15,2013-06-29 00:15:00,
2013-06-28 19:25:00,97.7,65.4,29.76,East,93,0.0,0.0,35,0.00,,,0.00,44,Wunderground v.1.15,2013-06-29 00:25:00,
2013-06-28 19:30:00,97.4,65.2,29.76,NE,55,0.0,0.0,35,0.00,,,0.00,39,Wunderground v.1.15,2013-06-29 00:30:00,
2013-06-28 19:35:00,96.9,66.3,29.76,NE,55,0.0,0.0,37,0.00,,,0.00,33,Wunderground v.1.15,2013-06-29 00:35:00,
2013-06-28 19:45:00,95.6,68.1,29.76,NE,55,0.0,0.0,41,0.00,,,0.00,33,Wunderground v.1.15,2013-06-29 00:45:00,
2013-06-28 19:50:00,94.9,69.6,29.76,NE,55,0.0,0.0,44,0.00,,,0.00,33,Wunderground v.1.15,2013-06-29 00:50:00,
2013-06-28 19:55:00,94.1,68.9,29.76,NE,55,0.0,0.0,44,0.00,,,0.00,35,Wunderground v.1.15,2013-06-29 00:55:00,
2013-06-28 20:05:00,93.1,66.6,29.76,NE,55,0.0,1.0,42,0.00,,,0.00,33,Wunderground v.1.15,2013-06-29 01:05:00,
2013-06-28 20:10:00,93.0,69.2,29.76,NE,55,0.0,0.0,46,0.00,,,0.00,28,Wunderground v.1.15,2013-06-29 01:10:00,
2013-06-28 20:15:00,92.5,69.3,29.76,NE,55,0.0,0.0,47,0.00,,,0.00,19,Wunderground v.1.15,2013-06-29 01:15:00,
2013-06-28 20:20:00,92.0,70.7,29.76,NE,55,0.0,0.0,50,0.00,,,0.00,16,Wunderground v.1.15,2013-06-29 01:20:00,
2013-06-28 20:25:00,91.6,70.3,29.77,NE,55,0.0,0.0,50,0.00,,,0.00,12,Wunderground v.1.15,2013-06-29 01:25:00,
2013-06-28 20:30:00,91.1,69.9,29.76,NE,55,0.0,0.0,50,0.00,,,0.00,9,Wunderground v.1.15,2013-06-29 01:30:00,
2013-06-28 20:40:00,90.1,68.4,29.76,NE,55,0.0,0.0,49,0.00,,,0.00,0,Wunderground v.1.15,2013-06-29 01:40:00,
2013-06-28 20:45:00,89.8,68.7,29.76,NE,55,0.0,0.0,50,0.00,,,0.00,0,Wunderground v.1.15,2013-06-29 01:45:00,
2013-06-28 20:50:00,89.3,68.2,29.76,NE,55,0.0,0.0,50,0.00,,,0.00,0,Wunderground v.1.15,2013-06-29 01:50:00,
2013-06-28 20:55:00,88.9,68.4,29.76,NE,55,0.0,0.0,51,0.00,,,0.00,0,Wunderground v.1.15,2013-06-29 01:55:00,
2013-06-28 21:00:00,88.3,67.9,29.76,NE,55,0.0,0.0,51,0.00,,,0.00,0,Wunderground v.1.15,2013-06-29 02:00:00,
2013-06-28 21:05:00,87.7,69.0,29.76,NE,55,0.0,0.0,54,0.00,,,0.00,0,Wunderground v.1.15,2013-06-29 02:05:00,
2013-06-28 21:10:00,87.1,68.4,29.76,NE,55,0.0,0.0,54,0.00,,,0.00,0,Wunderground v.1.15,2013-06-29 02:10:00,
2013-06-28 21:15:00,86.3,68.2,29.77,NE,55,0.0,0.0,55,0.00,,,0.00,0,Wunderground v.1.15,2013-06-29 02:15:00,
2013-06-28 21:20:00,85.7,69.2,29.77,NE,55,0.0,0.0,58,0.00,,,0.00,0,Wunderground v.1.15,2013-06-29 02:20:00,
2013-06-28 21:30:00,84.7,69.3,29.77,NE,55,0.0,0.0,60,0.00,,,0.00,0,Wunderground v.1.15,2013-06-29 02:30:00,
2013-06-28 21:35:00,84.3,69.4,29.77,NE,55,0.0,0.0,61,0.00,,,0.00,0,Wunderground v.1.15,2013-06-29 02:35:00,
2013-06-28 21:45:00,83.3,69.4,29.77,NE,55,0.0,0.0,63,0.00,,,0.00,0,Wunderground v.1.15,2013-06-29 02:45:00,
2013-06-28 21:50:00,83.0,69.6,29.77,NE,55,0.0,0.0,64,0.00,,,0.00,0,Wunderground v.1.15,2013-06-29 02:50:00,
2013-06-28 21:55:00,82.5,70.0,29.77,NE,55,0.0,0.0,66,0.00,,,0.00,0,Wunderground v.1.15,2013-06-29 02:55:00,
2013-06-28 22:00:00,81.9,69.4,29.77,NE,55,0.0,0.0,66,0.00,,,0.00,0,Wunderground v.1.15,2013-06-29 03:00:00,
2013-06-28 22:05:00,81.7,69.2,29.77,NE,55,0.0,0.0,66,0.00,,,0.00,0,Wunderground v.1.15,2013-06-29 03:05:00,
2013-06-28 22:15:00,81.5,69.5,29.78,NE,55,0.0,0.0,67,0.00,,,0.00,0,Wunderground v.1.15,2013-06-29 03:15:00,
2013-06-28 22:20:00,81.1,69.5,29.78,NE,55,0.0,0.0,68,0.00,,,0.00,0,Wunderground v.1.15,2013-06-29 03:20:00,
2013-06-28 22:25:00,81.0,68.6,29.78,NE,55,0.0,0.0,66,0.00,,,0.00,0,Wunderground v.1.15,2013-06-29 03:25:00,
2013-06-28 22:30:00,81.0,68.6,29.78,NE,55,0.0,0.0,66,0.00,,,0.00,0,Wunderground v.1.15,2013-06-29 03:30:00,
2013-06-28 22:35:00,81.0,69.0,29.79,NE,55,0.0,0.0,67,0.00,,,0.00,0,Wunderground v.1.15,2013-06-29 03:35:00,
2013-06-28 22:40:00,80.6,69.1,29.78,NE,55,0.0,0.0,68,0.00,,,0.00,0,Wunderground v.1.15,2013-06-29 03:40:00,
2013-06-28 22:45:00,80.1,69.4,29.79,NE,55,0.0,0.0,70,0.00,,,0.00,0,Wunderground v.1.15,2013-06-29 03:45:00,
2013-06-28 22:55:00,79.5,68.4,29.79,NE,55,0.0,0.0,69,0.00,,,0.00,0,Wunderground v.1.15,2013-06-29 03:55:00,
2013-06-28 23:00:00,79.5,68.0,29.79,NE,55,0.0,0.0,68,0.00,,,0.00,0,Wunderground v.1.15,2013-06-29 04:00:00,
2013-06-28 23:05:00,79.6,68.1,29.79,NE,55,0.0,0.0,68,0.00,,,0.00,0,Wunderground v.1.15,2013-06-29 04:05:00,
2013-06-28 23:10:00,79.4,67.5,29.79,NE,55,0.0,0.0,67,0.00,,,0.00,0,Wunderground v.1.15,2013-06-29 04:10:00,
2013-06-28 23:15:00,79.4,68.3,29.79,NE,55,0.0,0.0,69,0.00,,,0.00,0,Wunderground v.1.15,2013-06-29 04:15:00,
2013-06-28 23:20:00,79.0,68.4,29.79,NE,55,0.0,0.0,70,0.00,,,0.00,0,Wunderground v.1.15,2013-06-29 04:20:00,
2013-06-28 23:25:00,78.5,68.3,29.80,NE,55,0.0,0.0,71,0.00,,,0.00,0,Wunderground v.1.15,2013-06-29 04:25:00,
2013-06-28 23:30:00,78.2,68.0,29.80,NE,55,0.0,0.0,71,0.00,,,0.00,0,Wunderground v.1.15,2013-06-29 04:30:00,
2013-06-28 23:35:00,78.0,67.8,29.79,NE,55,0.0,0.0,71,0.00,,,0.00,0,Wunderground v.1.15,2013-06-29 04:35:00,
2013-06-28 23:40:00,77.9,68.1,29.79,NE,55,0.0,0.0,72,0.00,,,0.00,0,Wunderground v.1.15,2013-06-29 04:40:00,
2013-06-28 23:50:00,77.7,67.1,29.80,NE,55,0.0,1.0,70,0.00,,,0.00,0,Wunderground v.1.15,2013-06-29 04:50:00,
2013-06-28 23:55:00,77.6,67.4,29.80,NE,55,0.0,1.0,71,0.00,,,0.00,0,Wunderground v.1.15,2013-06-29 04:55:00,